TimeEST,TemperatureF,Dew PointF,Humidity,Sea Level PressureIn,VisibilityMPH,Wind Direction,Wind SpeedMPH,Gust SpeedMPH,PrecipitationIn,Events,Conditions,WindDirDegrees,DateUTC
12:16 AM,3.2,-0.4,85,30.23,10.0,West,4.6,-,N/A,,Mostly Cloudy,280,2010-01-02 05:16:00
12:36 AM,5.0,1.4,85,30.23,10.0,NW,3.5,-,N/A,,Overcast,310,2010-01-02 05:36:00
12:55 AM,3.2,-0.4,85,30.23,10.0,Calm,Calm,-,N/A,,Mostly Cloudy,0,2010-01-02 05:55:00
1:16 AM,5.0,1.4,85,30.23,10.0,Calm,Calm,-,N/A,,Mostly Cloudy,0,2010-01-02 06:16:00
1:36 AM,8.6,5.0,85,30.23,7.0,WNW,3.5,-,N/A,Snow,Light Snow,290,2010-01-02 06:36:00
1:55 AM,10.4,10.4,100,30.23,10.0,WNW,3.5,-,N/A,,Overcast,300,2010-01-02 06:55:00
2:16 AM,8.6,5.0,85,30.24,10.0,Calm,Calm,-,N/A,,Mostly Cloudy,0,2010-01-02 07:16:00
2:36 AM,10.4,8.6,92,30.24,10.0,Calm,Calm,-,N/A,,Scattered Clouds,0,2010-01-02 07:36:00
2:55 AM,6.8,3.2,85,30.25,10.0,West,4.6,-,N/A,,Mostly Cloudy,280,2010-01-02 07:55:00
3:16 AM,5.0,3.2,92,30.26,10.0,WNW,4.6,-,N/A,,Overcast,290,2010-01-02 08:16:00
3:36 AM,8.6,5.0,85,30.26,10.0,WNW,5.8,-,N/A,,Scattered Clouds,290,2010-01-02 08:36:00
3:55 AM,5.0,1.4,85,30.26,10.0,West,4.6,-,N/A,,Scattered Clouds,280,2010-01-02 08:55:00
4:16 AM,12.2,10.4,92,30.26,10.0,WNW,3.5,-,N/A,,Overcast,300,2010-01-02 09:16:00
4:36 AM,12.2,10.4,92,30.26,10.0,WNW,4.6,-,N/A,Snow,Light Snow,290,2010-01-02 09:36:00
4:55 AM,12.2,10.4,92,30.26,4.0,Calm,Calm,-,N/A,Snow,Light Snow,0,2010-01-02 09:55:00
5:16 AM,14.0,12.2,93,30.26,2.5,WNW,4.6,-,N/A,Snow,Light Snow,290,2010-01-02 10:16:00
5:36 AM,14.0,12.2,93,30.26,2.5,West,5.8,-,N/A,Snow,Light Snow,280,2010-01-02 10:36:00
5:55 AM,14.0,14.0,100,30.26,2.5,NW,4.6,-,N/A,Snow,Light Snow,310,2010-01-02 10:55:00
6:16 AM,14.0,14.0,100,30.27,2.0,NW,4.6,-,N/A,Snow,Light Snow,310,2010-01-02 11:16:00
6:36 AM,14.0,14.0,100,30.27,2.5,NW,5.8,-,N/A,Snow,Light Snow,320,2010-01-02 11:36:00
6:55 AM,14.0,12.2,93,30.27,3.0,NW,3.5,-,N/A,Snow,Light Snow,310,2010-01-02 11:55:00
7:17 AM,15.8,14.0,93,30.27,2.0,West,3.5,-,N/A,Snow,Light Snow,270,2010-01-02 12:17:00
7:36 AM,14.0,12.2,93,30.28,2.5,Calm,Calm,-,N/A,Snow,Light Snow,0,2010-01-02 12:36:00
7:55 AM,14.0,12.2,93,30.28,1.8,Calm,Calm,-,N/A,Snow,Light Snow,0,2010-01-02 12:55:00
8:16 AM,14.0,12.2,93,30.28,5.0,Calm,Calm,-,N/A,,Overcast,0,2010-01-02 13:16:00
8:36 AM,14.0,12.2,93,30.29,7.0,Calm,Calm,-,N/A,Snow,Light Snow,0,2010-01-02 13:36:00
8:55 AM,14.0,12.2,93,30.30,1.2,Calm,Calm,-,N/A,Snow,Light Snow,0,2010-01-02 13:55:00
9:16 AM,15.8,14.0,93,30.30,1.8,NW,3.5,-,N/A,Snow,Light Snow,310,2010-01-02 14:16:00
9:36 AM,15.8,14.0,93,30.30,3.0,NW,8.1,-,N/A,Snow,Light Snow,310,2010-01-02 14:36:00
9:55 AM,15.8,12.2,86,30.31,7.0,NW,5.8,-,N/A,,Overcast,320,2010-01-02 14:55:00
10:16 AM,15.8,12.2,86,30.31,1.2,NNW,8.1,-,N/A,Snow,Light Snow,330,2010-01-02 15:16:00
10:36 AM,15.8,12.2,86,30.31,2.0,NNW,4.6,-,N/A,Snow,Light Snow,340,2010-01-02 15:36:00
10:55 AM,17.6,12.2,79,30.32,5.0,NW,6.9,-,N/A,Snow,Light Snow,320,2010-01-02 15:55:00
11:16 AM,17.6,10.4,73,30.31,10.0,NW,9.2,-,N/A,,Overcast,320,2010-01-02 16:16:00
11:36 AM,17.6,8.6,68,30.31,10.0,NW,8.1,-,N/A,,Overcast,310,2010-01-02 16:36:00
11:55 AM,17.6,8.6,68,30.30,7.0,NNW,5.8,-,N/A,,Overcast,330,2010-01-02 16:55:00
12:16 PM,17.6,10.4,73,30.29,5.0,North,6.9,-,N/A,,Haze,350,2010-01-02 17:16:00
12:36 PM,17.6,8.6,68,30.28,7.0,North,6.9,-,N/A,,Overcast,350,2010-01-02 17:36:00
12:55 PM,17.6,8.6,68,30.27,10.0,NNW,8.1,-,N/A,,Overcast,340,2010-01-02 17:55:00
1:16 PM,17.6,6.8,63,30.26,10.0,NNW,6.9,-,N/A,,Mostly Cloudy,330,2010-01-02 18:16:00
1:36 PM,17.6,6.8,63,30.26,10.0,NW,8.1,-,N/A,,Scattered Clouds,320,2010-01-02 18:36:00
1:55 PM,17.6,8.6,68,30.25,10.0,NNW,4.6,-,N/A,,Mostly Cloudy,330,2010-01-02 18:55:00
2:16 PM,17.6,6.8,63,30.25,10.0,NNW,5.8,-,N/A,,Mostly Cloudy,340,2010-01-02 19:16:00
2:36 PM,17.6,6.8,63,30.25,10.0,NW,4.6,-,N/A,,Mostly Cloudy,320,2010-01-02 19:36:00
2:55 PM,17.6,5.0,58,30.26,10.0,NW,4.6,-,N/A,,Mostly Cloudy,320,2010-01-02 19:55:00
3:16 PM,17.6,5.0,58,30.26,10.0,West,5.8,-,N/A,,Mostly Cloudy,280,2010-01-02 20:16:00
3:36 PM,17.6,8.6,68,30.26,10.0,West,6.9,-,N/A,,Overcast,280,2010-01-02 20:36:00
3:55 PM,17.6,8.6,68,30.26,10.0,West,6.9,-,N/A,,Overcast,280,2010-01-02 20:55:00
4:16 PM,17.6,10.4,73,30.26,3.0,WNW,4.6,-,N/A,Snow,Light Snow,300,2010-01-02 21:16:00
4:36 PM,17.6,12.2,79,30.26,2.0,NW,4.6,-,N/A,Snow,Light Snow,310,2010-01-02 21:36:00
4:55 PM,17.6,12.2,79,30.26,1.8,WNW,4.6,-,N/A,Snow,Light Snow,300,2010-01-02 21:55:00
5:16 PM,17.6,12.2,79,30.27,2.0,NNW,3.5,-,N/A,Snow,Light Snow,330,2010-01-02 22:16:00
5:36 PM,17.6,14.0,86,30.27,1.2,NW,3.5,-,N/A,Snow,Light Snow,310,2010-01-02 22:36:00
5:55 PM,19.4,14.0,80,30.28,2.0,Calm,Calm,-,N/A,Snow,Light Snow,0,2010-01-02 22:55:00
6:16 PM,17.6,14.0,86,30.28,1.8,NW,3.5,-,N/A,Snow,Light Snow,320,2010-01-02 23:16:00
6:36 PM,17.6,14.0,86,30.29,1.2,NNW,5.8,-,N/A,Snow,Light Snow,340,2010-01-02 23:36:00
6:55 PM,15.8,14.0,93,30.29,2.0,NNW,4.6,-,N/A,Snow,Light Snow,330,2010-01-02 23:55:00
7:16 PM,15.8,12.2,86,30.30,5.0,NNW,4.6,-,N/A,Snow,Light Snow,340,2010-01-03 00:16:00
7:36 PM,14.0,12.2,93,30.30,10.0,NNW,4.6,-,N/A,,Mostly Cloudy,330,2010-01-03 00:36:00
7:55 PM,14.0,10.4,86,30.30,10.0,NNW,4.6,-,N/A,,Overcast,330,2010-01-03 00:55:00
8:16 PM,12.2,10.4,92,30.31,10.0,NNW,3.5,-,N/A,,Mostly Cloudy,330,2010-01-03 01:16:00
8:36 PM,12.2,8.6,85,30.31,10.0,NNW,3.5,-,N/A,,Scattered Clouds,340,2010-01-03 01:36:00
8:55 PM,10.4,8.6,92,30.32,10.0,NW,3.5,-,N/A,,Scattered Clouds,320,2010-01-03 01:55:00
9:16 PM,10.4,8.6,92,30.32,10.0,Calm,Calm,-,N/A,,Clear,0,2010-01-03 02:16:00
9:55 PM,3.2,-0.4,85,30.32,10.0,Calm,Calm,-,N/A,,Clear,0,2010-01-03 02:55:00
10:16 PM,-0.4,-4.0,85,30.32,10.0,WNW,3.5,-,N/A,,Clear,290,2010-01-03 03:16:00
10:36 PM,-0.4,-4.0,85,30.32,10.0,WNW,3.5,-,N/A,,Clear,300,2010-01-03 03:36:00
10:55 PM,3.2,-0.4,85,30.32,10.0,Calm,Calm,-,N/A,,Clear,0,2010-01-03 03:55:00
11:16 PM,1.4,-0.4,92,30.32,10.0,Calm,Calm,-,N/A,,Clear,0,2010-01-03 04:16:00
11:36 PM,-5.8,-9.4,84,30.32,10.0,NNW,3.5,-,N/A,,Clear,330,2010-01-03 04:36:00
11:55 PM,-4.0,-7.6,85,30.32,10.0,Calm,Calm,-,N/A,,Clear,0,2010-01-03 04:55:00